Tracking 28790 objects as of 19-Apr-2024
HD Live streaming from Space Station
objects crossing your sky now

DELTA 1 DEB

Track DELTA 1 DEB now!
10-day predictions


NORAD ID: 7034
Int'l Code: 1973-086AA
Perigee: 1,484.8 km
Apogee: 1,511.0 km
Inclination: 102.0 °
Period: 115.8 minutes
Semi major axis: 7868 km
RCS: 0.082 m2 (small)
Launch date: November 6, 1973
Source: United States (US)
Launch site: AIR FORCE WESTERN TEST RANGE (AFWTR)

Note: This is SATELLITE DEBRIS
Your satellite tracking list
Your tracking list is empty




NASA's NSSDC Master Catalog

Two Line Element Set (TLE):
1 07034U 73086AA  24109.89171216  .00000069  00000-0  81424-3 0  9996
2 07034 102.0204  81.7376 0016613  44.3318  24.0824 12.43743633287796
Source of the keplerian elements: AFSPC